Flag for U.S.A. Weather past 2 weeks in Fort Worth, Texas, U.S.A.

Now
92 °F

Sunny.


Feels Like: 93 °F
Forecast: 73 / 95 °F
Wind: 8 mph from Southeast

Location: Meacham International Airport

Current Time: Aug 31, 2015 at 1:25:29 PM

Latest Report: Aug 31, 2015 at 12:53 PM


Visibility: 10 mi

Pressure: 29.98 "Hg

Humidity: 40%

Dew point: 64 °F

Location of Fort WorthLocation

Historic Weather in Fort Worth — Graph

°F

Fort Worth temperature yesterday

Maximum temperature yesterday: 97 °F (at 3:53 PM)
Minimum temperature yesterday: 75 °F (at 3:53 AM)
Average temperature yesterday: 85 °F

Past Weeks' High & Low Weather Summary

 TemperatureHumidityPressure
High101 °F (Aug 23, 2:53 PM)90% (Aug 20, 2:03 AM)30.13 "Hg (Aug 20, 2:03 AM)
Low66 °F (Aug 20, 2:03 AM)26% (Aug 30, 4:53 PM)29.65 "Hg (Aug 18, 7:53 PM)
Average85 °F55%29.93 "Hg
* Reported Aug 16 11:53 AM — Aug 31 11:53 AM, Fort Worth, Weather by CustomWeather, © 2015

Note: Actual official high and low records may vary slightly from our data, if they occured in-between our weather recording intervals... More about our weather records

Advertising

Fort Worth weather history for previous 24 hours

 ConditionsComfort  
Time TempWeatherWind HumidityBarometerVisibility
11:53 AM
Mon, Aug 31
90 °FSunny.5 mph42%29.99 "Hg10 mi
10:53 AM87 °FSunny.5 mph50%30.00 "Hg10 mi
9:53 AM84 °FSunny.7 mph57%30.00 "Hg10 mi
8:53 AM79 °FSunny.5 mph67%29.99 "Hg10 mi
7:53 AM76 °FPassing clouds.No wind72%29.98 "Hg10 mi
6:53 AM75 °FClear.No wind71%29.96 "Hg10 mi
5:53 AM75 °FClear.No wind71%29.95 "Hg10 mi
4:53 AM75 °FPassing clouds.5 mph71%29.94 "Hg10 mi
3:53 AM76 °FClear.5 mph67%29.93 "Hg10 mi
2:53 AM76 °FClear.6 mph67%29.93 "Hg10 mi
1:53 AM77 °FClear.6 mph64%29.93 "Hg10 mi
12:53 AM79 °FClear.9 mph58%29.91 "Hg10 mi
11:53 PM
Sun, Aug 30
81 °FClear.9 mph53%29.91 "Hg10 mi
10:53 PM83 °FClear.8 mph48%29.91 "Hg10 mi
9:53 PM84 °FClear.8 mph45%29.91 "Hg10 mi
8:53 PM86 °FSunny.13 mph43%29.91 "Hg10 mi
7:53 PM88 °FScattered clouds.12 mph42%29.89 "Hg10 mi
6:53 PM91 °FScattered clouds.14 mph41%29.89 "Hg10 mi
5:53 PM94 °FPassing clouds.6 mph30%29.88 "Hg10 mi
4:53 PM97 °FSunny.8 mph26%29.88 "Hg10 mi
3:53 PM97 °FScattered clouds.N/A27%29.91 "Hg10 mi
2:53 PM95 °FSunny.7 mph32%29.93 "Hg10 mi
1:53 PM94 °FSunny.7 mph32%29.95 "Hg10 mi
Weather by CustomWeather, © 2015

See weather overviewHow to use our weather pages